,

(GMT )
Al Udeid

Weather History for KQIR - May, 2013

Change the Weather History Date:

Tuesday, May 21, 2013

  Actual Average Record
Temperature  
Mean Temperature 92 °F -  
Max Temperature 107 °F - - ()
Min Temperature 78 °F - - ()
Cooling Degree Days 28    
Growing Degree Days 42 (Base 50)    
Moisture  
Dew Point 54 °F    
Average Humidity 32    
Maximum Humidity 64    
Minimum Humidity 9    
Precipitation  
Precipitation 0.00 in - - ()
Sea Level Pressure  
Sea Level Pressure 29.69 in    
Wind  
Wind Speed 8 mph ()    
Max Wind Speed 17 mph    
Max Gust Speed -    
Visibility 6.2 miles    
Events      
Averages and records for this station are not official NWS values.
T = Trace of Precipitation, MM = Missing Value Source: Averaged Metar Reports

Daily Weather History Graph

Daily Weather History Graph

Search for Another Location

Airport or City:

Trip Planner

Search our weather history database for the weather conditions in past years. The results will help you decide how hot, cold, wet, or windy it might be!

Date:

Astronomy

May. 21, 2013 Rise Set
Actual Time 4:47 AM +03 6:15 PM +03
Civil Twilight 4:22 AM +03 6:40 PM +03
Nautical Twilight 3:52 AM +03 7:10 PM +03
Astronomical Twilight 3:21 AM +03 7:41 PM +03
Moon 2:25 PM +03 (5/21) 1:36 AM +03 (5/21)
Length of Visible Light 14h 18m
Length of Day
13h 27m
Waxing Gibbous, 81% of the Moon is Illuminated
May 21
Waxing Gibbous
May 25
Full
May 31
Last Quarter
Jun 8
New
Jun 16
First Quarter

Hourly Weather History & Observations

Time (+03) Temp. Heat Index Dew Point Humidity Pressure Visibility Wind Dir Wind Speed Gust Speed Precip Events Conditions
12:55 AM 79.7 °F - 61.7 °F 54% 29.68 in 6.2 mi SSW 6.9 mph - N/A   Clear
1:55 AM 79.9 °F - 61.5 °F 53% 29.67 in 6.2 mi SSW 8.1 mph - N/A   Clear
2:55 AM 79.2 °F - 61.2 °F 54% 29.66 in 6.2 mi SSW 9.2 mph - N/A   Clear
3:55 AM 78.8 °F - 55.4 °F 44% 29.68 in 6.2 mi SSW 8.1 mph - N/A   Clear
4:55 AM 78.1 °F - 51.6 °F 40% 29.68 in 6.2 mi South 6.9 mph - N/A   Clear
5:55 AM 79.2 °F - 50.5 °F 37% 29.70 in 6.2 mi South 5.8 mph - N/A   Clear
6:55 AM 85.1 °F - 47.1 °F 27% 29.73 in 6.2 mi South 6.9 mph - N/A   Clear
7:55 AM 90.3 °F - 45.9 °F 21% 29.73 in 6.2 mi SSE 9.2 mph - N/A   Clear
8:55 AM 95.2 °F - 46.0 °F 19% 29.74 in 6.2 mi South 8.1 mph - N/A   Clear
9:55 AM 99.5 °F - 46.4 °F 16% 29.74 in 6.2 mi South 10.4 mph - N/A   Clear
10:55 AM 103.1 °F - 44.1 °F 13% 29.73 in 6.2 mi South 10.4 mph - N/A   Mostly Cloudy
11:55 AM 106.0 °F - 41.5 °F 11% 29.71 in 6.2 mi South 10.4 mph - N/A   Overcast
12:55 PM 107.2 °F - 37.8 °F 9% 29.69 in 6.2 mi South 9.2 mph - N/A   Mostly Cloudy
1:55 PM 105.4 °F - 51.1 °F 16% 29.68 in 6.2 mi SE 12.7 mph - N/A   Scattered Clouds
2:55 PM 102.9 °F - 50.9 °F 17% 29.68 in 6.2 mi East 17.3 mph - N/A   Partly Cloudy
3:55 PM 99.1 °F - 52.3 °F 21% 29.67 in 6.2 mi East 15.0 mph - N/A   Clear
4:55 PM 96.6 °F 94.2 °F 53.2 °F 23% 29.66 in 6.2 mi East 17.3 mph - N/A   Clear
5:55 PM 92.8 °F 91.7 °F 57.7 °F 31% 29.66 in 6.2 mi East 13.8 mph - N/A   Clear
6:55 PM 90.3 °F 89.0 °F 57.9 °F 33% 29.67 in 6.2 mi East 12.7 mph - N/A   Clear
7:55 PM 88.9 °F 88.3 °F 59.4 °F 37% 29.68 in 6.2 mi ESE 12.7 mph - N/A   Clear
8:55 PM 87.8 °F 89.1 °F 63.9 °F 45% 29.70 in 6.2 mi ESE 9.2 mph - N/A   Clear
9:55 PM 87.4 °F 87.7 °F 61.5 °F 42% 29.71 in 6.2 mi ESE 8.1 mph - N/A   Clear
10:55 PM 85.3 °F 86.4 °F 63.7 °F 48% 29.70 in 6.2 mi SE 8.1 mph - N/A   Clear
11:55 PM 84.2 °F 89.0 °F 70.7 °F 64% 29.68 in 6.2 mi SSE 11.5 mph - N/A   Clear